{"data":{"norad_id":68651,"epoch":"2026-09-19T21:56:09.617280Z","epoch_age_seconds":113894,"freshness":"FRESH","line1":"1 68651U 26075R   26262.91400020  .00000042  00000+0  46166-4 0  9992","line2":"2 68651  88.9864 311.3223 0002148  86.3558 273.7839 13.51026888 22607","mean_motion":13.51026888,"eccentricity":0.0002148,"inclination_deg":88.9864,"raan_deg":311.3223,"arg_perigee_deg":86.3558,"mean_anomaly_deg":273.7839,"bstar":4.6166e-5,"rev_number":2260,"period_min":106.58559150749,"perigee_km":1066.8832484299,"apogee_km":1070.0823162884,"semimajor_km":7446.6197823591,"source":"CELESTRAK","updated_at":"2026-09-20T09:00:24.372351Z"}}